EHI
17 19 22 23 23 25 24 21 21 21 21 20 19 17 15 11 7 5 5 4 4 5 5 4 4 3 1 0 0 0 0 0 0 0 0 0 0 0 0 0 0 0 0
17 20 22 22 22 23 21 19 19 19 19 19 19 18 16 13 9 6 4 3 4 5 5 4 4 3 1 0 0 0 0 0 0 0 0 0 0 0 0 0 0 0 0
16 20 22 22 21 19 17 16 17 17 17 17 18 18 17 14 11 7 4 3 3 4 5 5 4 2 1 0 0 0 0 0 0 0 0 0 0 0 0 0 0 0 0
16 19 22 23 22 19 16 15 16 16 15 15 16 16 15 13 11 7 4 3 3 3 4 5 3 1 0 0 0 0 0 0 0 0 0 0 0 0 0 0 0 0 0
17 19 22 24 24 23 19 17 17 17 15 14 14 12 11 11 9 6 3 2 2 3 3 3 2 0 0 0 0 0 0 0 0 0 0 0 0 0 0 0 0 0 0
19 21 23 23 23 24 23 20 19 17 16 15 12 10 10 10 9 6 2 1 2 3 2 1 0 0 0 0 0 0 0 0 0 0 0 0 0 0 0 0 0 0 0
20 23 23 21 21 22 22 22 19 16 16 14 12 10 10 10 8 5 3 2 3 2 1 0 0 0 0 0 0 0 0 0 0 0 0 0 0 0 0 0 0 0 0
18 21 21 19 19 21 21 20 17 14 14 13 12 11 11 9 7 4 3 3 3 2 1 0 0 0 0 0 0 0 0 0 0 0 0 0 0 0 0 0 0 0 0
11 15 17 17 18 20 20 18 16 12 11 11 12 11 11 8 6 4 3 3 2 1 0 0 0 0 0 0 0 0 0 0 0 0 0 0 0 0 0 0 0 0 0
7 11 13 14 17 18 18 18 16 13 10 9 10 11 10 7 5 4 3 2 1 0 0 0 0 0 0 0 0 0 1 0 0 0 0 0 0 0 0 0 0 0 0
7 9 11 13 15 16 16 15 14 12 9 8 10 10 8 6 4 3 2 1 0 0 0 0 0 0 0 0 0 0 0 0 0 0 0 0 0 0 0 0 0 0 0
7 8 10 13 15 15 13 11 10 10 9 9 10 9 6 4 3 2 1 0 0 0 0 0 0 0 0 0 0 0 0 0 0 0 0 0 0 0 0 0 0 0 0
5 6 9 13 15 15 13 10 9 10 11 10 9 7 5 3 2 1 0 0 0 0 0 0 0 0 0 0 0 0 0 0 0 0 0 0 0 0 0 0 0 0 0
4 4 7 11 14 15 14 12 11 12 12 11 7 5 3 1 1 0 0 0 0 0 0 0 0 0 0 0 0 0 0 0 0 0 0 0 0 0 0 0 0 0 0
3 3 5 9 13 15 15 14 14 13 12 9 5 2 1 0 0 0 0 0 0 0 0 0 0 0 0 0 0 0 0 0 0 0 0 0 0 0 0 0 0 0 0
2 2 5 8 12 14 15 15 15 15 12 8 3 1 0 0 0 0 0 0 0 0 0 0 0 0 0 0 0 0 0 0 0 0 0 0 0 0 0 0 0 0 0
3 2 3 7 11 13 12 13 15 15 12 7 4 2 1 0 0 0 0 0 0 0 0 0 0 0 0 0 0 0 0 0 0 0 0 0 0 0 0 0 0 0 0
3 3 2 5 8 10 10 10 12 13 10 7 5 3 1 0 0 0 0 0 0 0 0 0 0 0 0 0 0 0 0 0 0 0 0 0 0 0 0 0 0 0 0
3 3 3 4 6 7 7 7 9 10 8 7 6 3 1 1 0 0 0 0 0 0 0 0 1 1 1 0 0 0 0 0 0 0 0 0 0 0 0 0 0 0 0
4 4 4 4 4 5 6 7 8 8 7 7 6 4 2 2 1 0 0 0 0 0 0 1 2 2 2 1 0 0 0 0 0 0 0 0 0 0 0 0 0 0 0
4 4 4 4 3 4 6 7 8 7 6 6 5 3 2 2 1 0 0 0 0 0 1 2 3 3 2 1 0 0 0 0 0 0 0 0 0 0 0 0 0 0 0
4 3 2 1 2 3 4 5 5 5 4 4 3 2 2 2 1 1 1 1 0 0 1 3 3 3 3 1 0 0 0 0 0 0 0 0 0 0 0 0 0 0 0
3 2 1 0 1 2 3 3 2 2 2 2 2 2 1 1 1 1 1 1 1 1 2 3 3 3 3 2 1 1 0 0 0 0 0 0 0 0 0 0 0 0 0
3 3 2 1 0 1 2 2 2 2 2 2 2 2 1 0 0 0 1 1 1 2 2 2 3 3 3 3 2 1 0 0 0 0 0 0 0 0 0 0 0 0 0
3 3 3 2 1 0 1 2 3 3 3 3 2 1 1 0 0 0 0 0 1 2 1 1 1 2 2 2 1 1 0 0 0 0 0 0 0 0 0 0 0 0 0
3 3 4 3 1 1 2 2 3 3 3 3 1 0 0 0 0 0 0 0 1 1 0 0 0 1 1 1 0 0 0 0 0 0 0 0 0 0 0 0 0 0 0
Wind_Speed
9 8 8 8 7 6 6 6 6 6 5 3 3 3 2 2 1 2 3 4 4 4 4 3 2 2 2 2 2 2 2 1 1 2 2 3 2 1 0 1 2 2 3
8 8 8 7 7 7 7 6 6 6 5 4 3 3 3 2 2 1 2 3 4 4 4 4 3 2 2 2 2 2 1 0 1 3 2 2 3 2 1 0 1 2 1
13 11 10 9 8 8 8 7 6 5 5 4 3 3 3 2 1 1 1 2 3 4 4 4 3 3 3 2 2 2 3 1 0 2 3 3 2 2 2 1 1 1 1
11 11 11 10 10 10 8 7 7 5 4 5 5 6 4 3 2 2 2 1 2 3 3 3 4 3 3 3 3 3 2 3 1 0 1 2 4 3 1 2 1 1 2
11 12 13 12 11 10 9 7 7 6 5 5 6 6 4 3 2 2 2 2 1 2 3 3 3 3 3 3 3 2 2 2 3 2 1 1 1 2 3 1 2 2 2
10 10 9 9 8 8 8 7 7 6 6 6 6 6 6 5 4 3 2 1 1 1 2 3 3 3 3 3 3 3 3 2 2 2 2 2 2 2 2 2 1 1 2
9 9 9 9 9 9 9 8 8 7 7 7 7 7 7 7 6 5 4 3 2 1 2 2 3 3 3 3 3 3 3 2 2 2 2 2 2 2 3 3 1 1 2
8 10 11 11 10 11 10 10 9 8 8 8 7 6 6 5 4 5 4 4 3 3 3 3 3 3 3 3 3 2 2 2 2 2 2 1 1 2 2 3 3 1 1
9 10 9 9 9 9 10 11 10 8 8 8 7 6 6 5 5 5 4 3 3 3 3 3 3 3 3 3 3 2 2 2 2 2 2 2 1 1 2 2 3 4 2
7 9 9 9 8 8 8 8 9 8 7 7 7 6 6 6 5 5 5 4 4 3 3 2 3 3 3 4 3 3 2 3 2 2 2 2 1 1 1 2 2 3 4
7 8 8 8 8 7 7 7 7 6 6 7 6 6 6 5 5 5 5 5 4 4 4 3 3 4 4 4 4 3 3 3 2 2 2 2 2 1 1 1 2 2 3
6 7 8 7 7 7 6 7 7 7 7 6 6 6 6 5 5 5 5 5 4 4 4 3 3 4 4 4 5 5 4 4 4 3 3 3 2 2 1 2 2 2 2
4 5 6 7 7 7 7 7 7 7 7 6 6 6 6 6 6 6 5 5 5 4 3 3 4 4 4 4 5 5 4 4 4 4 4 4 3 3 2 2 2 2 2
4 4 5 5 6 6 7 7 6 7 7 6 6 6 6 7 6 6 5 5 5 4 4 4 4 4 4 4 4 4 4 4 4 4 4 4 5 5 4 3 3 2 2
3 4 4 4 4 5 5 6 6 6 6 6 6 6 6 5 5 5 5 5 5 5 4 4 3 4 4 4 5 5 5 4 4 4 4 4 5 6 5 4 4 3 2
3 3 4 5 5 6 6 6 6 6 6 6 6 6 5 5 5 5 5 4 4 4 4 4 4 4 4 5 7 6 4 4 4 4 3 3 4 5 5 6 6 7 5
2 3 4 5 5 6 7 7 6 5 6 6 6 6 6 6 6 6 5 5 4 4 3 3 4 4 5 7 7 8 5 4 4 4 3 3 3 4 3 4 4 5 7
3 3 4 4 4 5 5 6 5 6 6 6 6 6 7 6 5 5 5 5 4 4 4 4 4 4 5 7 7 7 4 3 4 4 4 4 3 4 4 3 3 3 4
4 4 4 4 5 6 6 6 6 6 6 6 6 6 6 6 6 5 5 4 3 3 3 3 4 4 5 7 7 6 3 3 4 3 4 4 4 6 7 4 4 3 4
3 3 2 2 3 5 6 6 6 6 6 6 6 5 6 6 6 6 5 3 3 3 3 3 4 4 4 6 7 7 3 3 2 2 3 5 6 6 7 5 5 5 5
3 3 3 2 3 3 6 6 6 6 6 5 4 4 5 5 6 5 4 3 3 3 2 3 3 3 4 6 8 8 4 4 3 3 2 3 6 7 8 7 6 7 5
1 2 3 2 2 3 6 5 5 5 4 4 4 4 4 4 4 4 4 3 3 3 2 1 2 2 3 5 7 10 8 5 4 3 3 3 6 6 7 6 7 6 4
2 2 3 2 1 3 6 6 5 4 4 4 4 3 3 3 3 4 4 3 3 3 3 2 3 3 2 4 7 9 9 8 4 3 4 4 5 5 4 7 7 4 3
2 1 2 3 2 2 4 5 4 4 5 4 3 3 3 2 2 3 3 4 4 4 3 3 3 3 2 2 3 3 4 5 4 3 2 3 3 3 3 3 4 4 4
1 2 2 3 3 2 3 3 4 4 4 4 3 2 2 3 2 2 3 4 5 6 5 5 4 4 5 6 7 5 4 4 4 3 1 1 1 2 2 2 3 3 3
1 2 2 2 2 2 3 3 3 4 4 3 3 2 2 2 2 2 1 2 3 6 8 8 6 5 7 7 7 8 7 6 6 4 3 3 4 4 4 4 4 3 4
Wind_Direction
183 169 165 166 156 151 146 153 156 157 148 148 148 140 147 149 137 153 156 151 145 138 131 133 129 121 123 143 138 123 110 82 117 82 28 358 1 50 181 181 170 175 179
171 171 166 166 163 163 160 159 160 164 163 166 165 155 147 152 158 148 138 149 147 146 146 143 146 140 129 126 125 124 121 123 128 128 106 16 354 342 329 213 174 175 179
172 174 172 173 165 166 167 168 168 166 167 156 135 115 94 81 83 114 151 159 152 152 150 154 155 157 153 161 164 150 143 153 47 140 144 148 209 296 322 295 202 182 195
173 173 174 176 176 176 168 167 166 163 166 155 149 148 151 161 182 180 179 162 150 154 154 159 164 164 162 169 181 165 159 149 165 204 156 166 160 159 287 317 297 225 215
176 177 179 179 178 171 167 169 164 165 166 163 158 153 150 161 150 145 154 158 154 164 167 168 169 171 170 172 177 163 159 159 164 171 155 125 127 143 151 249 310 320 272
174 174 174 167 166 165 161 160 168 171 173 167 162 162 162 157 151 157 166 168 157 166 174 171 170 176 175 175 180 177 168 166 163 165 153 157 162 179 161 181 234 274 289
164 161 164 166 168 168 166 166 173 176 179 172 171 172 168 164 168 171 173 167 164 175 194 180 181 184 181 180 172 164 172 171 165 166 164 171 187 173 159 150 171 233 302
168 166 170 171 174 173 172 171 176 180 181 177 178 175 169 167 172 172 170 176 182 189 191 184 186 185 178 177 167 159 170 161 166 169 161 165 201 166 166 160 146 119 332
172 172 171 170 172 174 177 177 177 180 181 178 173 172 173 172 173 173 171 176 180 183 183 178 181 182 175 173 159 162 174 161 167 172 168 175 202 171 173 157 155 152 167
173 172 171 174 176 178 179 179 178 183 183 179 177 174 174 175 174 168 172 178 183 180 172 179 190 191 184 176 165 166 175 168 175 169 165 185 195 177 158 154 155 154 160
169 169 171 174 174 175 177 177 176 178 182 183 179 170 172 173 171 171 179 180 180 177 179 184 192 192 190 183 172 180 180 182 191 190 184 205 191 170 181 152 150 165 152
167 167 168 164 164 172 179 180 180 182 184 182 175 174 170 169 172 178 182 179 176 179 185 185 191 199 194 186 180 187 188 186 192 199 190 210 198 189 190 173 176 183 173
145 145 152 162 171 173 176 182 183 183 177 174 172 171 171 175 182 184 182 180 177 180 184 185 193 201 198 191 188 186 190 195 199 196 192 202 189 200 201 189 187 190 182
151 149 160 167 169 170 174 175 179 177 173 172 173 175 181 183 185 183 181 182 183 182 189 195 200 199 198 195 192 186 192 201 205 202 199 199 193 197 196 195 192 182 175
158 161 169 171 161 165 171 170 171 172 170 168 175 183 183 179 177 180 185 187 187 190 189 191 202 201 200 201 194 194 200 203 211 215 213 211 208 205 198 194 188 175 179
165 167 169 170 170 173 173 172 175 175 170 175 182 179 171 172 176 181 182 179 187 191 185 193 199 206 214 202 198 195 197 200 204 211 219 222 212 208 207 204 197 188 188
165 180 184 186 186 183 176 177 178 173 171 177 180 176 177 180 186 186 178 182 188 184 191 202 201 213 220 205 205 204 190 192 201 204 202 213 206 198 199 210 216 219 217
191 198 198 191 189 184 174 168 163 169 174 177 181 183 181 184 183 180 184 191 188 187 200 209 212 215 224 209 208 205 197 199 209 209 204 203 209 207 193 193 213 233 233
203 204 198 199 188 182 173 161 168 174 176 182 185 186 182 179 178 181 188 189 185 197 209 211 212 217 229 212 205 194 190 204 218 218 210 203 210 218 200 187 209 239 259
191 185 182 184 184 187 165 157 167 172 183 190 191 186 180 182 185 188 188 186 184 199 205 217 218 217 225 209 197 187 185 201 217 224 221 215 216 220 203 193 201 226 245
196 169 151 168 196 178 155 157 163 181 190 182 175 178 179 184 187 185 180 176 181 185 200 219 235 225 218 199 193 190 186 194 203 216 226 231 226 227 217 207 210 223 227
163 152 148 171 194 166 152 158 179 186 170 160 161 171 183 193 182 176 179 174 173 178 200 219 254 252 219 198 202 202 203 195 192 215 226 234 235 234 228 220 227 230 221
181 163 151 148 173 169 158 168 194 172 157 158 167 178 184 198 183 177 178 173 173 182 201 209 233 249 232 216 217 214 214 211 204 220 230 244 247 237 232 231 231 222 209
183 146 131 140 164 182 165 172 177 161 156 164 174 174 177 189 188 182 179 180 188 197 205 211 227 240 237 224 217 219 218 215 218 233 246 248 238 233 241 243 233 219 212
192 140 149 173 187 177 165 170 161 147 147 159 168 172 181 185 189 194 194 195 206 200 200 212 211 212 229 230 210 195 202 203 207 183 180 197 208 241 250 246 243 232 219
172 138 159 174 185 170 165 169 165 152 150 155 165 172 177 183 183 181 224 250 238 233 224 224 213 220 228 221 210 209 210 203 180 162 190 210 218 227 232 234 238 231 228